OPS 4682 DEB, 38453

Orbit data source: Space-Track

OPS 4682 DEB, 38453 is space debris in LEO originally from a launch on Sat, 03 Apr 1965 UTC launched from the Air Force Western Test Range (AFWTR). Debris objects in space refer to the collection of defunct objects orbiting the Earth. Examples of debris include non-operational satellites, rocket bodies, and fragments generated from explosions, collisions, or faulty payload assembly.

Loading next visibility...
Identifier
38453, 1965-027FJ
Orbit
LEO
Country
Flag of USUS
Related business
Manufacturer
Unknown
Mission
Spacecraft
Bus & Motor
Unknown
Mass
Unknown
Launch date (UTC)
1965-04-03 (61 years ago)
Launch vehicle
Unknown
Launch site
Air Force Western Test Range (AFWTR)
Object type
Payload
Rocket body
Debris
Shape & HBR
Unknown shape, 0.1 m
Radar Cross Section
Small (<0.1 m²)

Expand to show TLE details & history
Last TLE update: 1 week ago

TLE from 1 week ago
0 OPS 4682 DEB
1 38453U 65027FJ  26065.57993048  .00000635  00000-0  22393-2 0  9992
2 38453  90.2456   4.3138 0026589 127.3983 232.9563 12.94872029561717
Epoch: 2026-03-06T13:55Z
TLE epoch observation values (Epoch: 2026-03-06T13:55:05.993Z)
Latitude
0.00004°
Longitude
-8.77507°
Altitude
1,297.428 km
Speed
7.202 km/s
True Right ascension
00h 17m 15s
True Declination
0° 00' 00"
Sunlit
Object was in daylight at epoch
Visualization orbit readout
Latitude
Unknown
Longitude
Unknown
Altitude
Unknown
Speed
Unknown
Apparent Right ascension
Unknown
Apparent Declination
Unknown
Sunlit
N/A
Visualization observer readout
Local Sidereal Time
10:48:29
Azimuth
Unknown
Elevation
Unknown
Doppler factor
Unknown
Orbital elements
Apogee altitude
1,299.74 km
Perigee altitude
1,259.019 km
Semi-major axis
7,657.516 km
Eccentricity
0.00266
Inclination
90.2456°
RAAN
4.3138°
Arg. of periapsis
127.3983°
True anomaly
232.71359°
Mean anomaly
232.9563°
Eccentric anomaly
232.8349°
Mean motion
3.239 °/min
Orbital period
111.15 mins
BSTAR
0.0022393
Loading maneuver chart data...
Computing Atmospheric mass density...
Loading historical data...
Loading historical data...
Loading historical data...
Loading historical data...
Loading historical data...
Loading historical data...
Loading historical data...

Documentation

Showing up to 5 results
|